Location: Peterborough
(44.3091°N, 78.3197°W)
Time: 20:09:19
(UTC-04:00)

Transit 4A - Visible Passes

Search period start: 12 April 2024 00:00
Search period end: 22 April 2024 00:00
Orbit: 871 x 972 km, 66.8° (Epoch: 12 April)

Date Brightness Start Highest point End Pass type
(mag) Time Alt. Az. Time Alt. Az. Time Alt. Az.
12 Apr 10.0 01:42:21 10° NW 01:43:29 15° WNW 01:43:29 15° WNW visible
12 Apr 9.8 22:19:21 10° N 22:22:58 17° NNE 22:25:17 13° ENE visible
13 Apr 8.6 00:04:38 10° NNW 00:08:46 46° N 00:08:46 46° N visible
13 Apr 10.2 01:52:00 10° WNW 01:52:15 11° WNW 01:52:15 11° WNW visible
13 Apr 9.4 22:28:03 10° N 22:32:27 21° NE 22:34:05 19° ENE visible
14 Apr 8.7 00:13:40 10° NNW 00:17:34 44° NW 00:17:34 44° NW visible
14 Apr 9.0 22:36:51 10° NNW 22:41:50 28° NE 22:42:53 26° ENE visible
15 Apr 8.9 00:22:48 10° NW 00:26:23 37° NW 00:26:23 37° NW visible
15 Apr 10.0 21:01:19 10° N 21:02:59 11° NNE 21:04:40 10° NE visible
15 Apr 8.6 22:45:43 10° NNW 22:51:07 38° NE 22:51:44 37° ENE visible
16 Apr 9.3 00:32:03 10° NW 00:35:13 29° WNW 00:35:13 29° WNW visible
16 Apr 9.9 21:09:37 10° N 21:12:35 14° NNE 21:15:34 10° ENE visible
16 Apr 8.1 22:54:38 10° NNW 23:00:20 52° NE 23:00:36 52° ENE visible
17 Apr 9.6 00:41:30 10° NW 00:44:06 22° WNW 00:44:06 22° WNW visible
17 Apr 9.6 21:18:14 10° N 21:22:07 18° NE 21:26:00 10° ENE visible
17 Apr 7.7 23:03:37 10° NNW 23:09:28 74° ENE 23:09:30 74° ENE visible
18 Apr 9.9 00:51:16 10° WNW 00:52:59 15° W 00:52:59 15° W visible
18 Apr 9.3 21:26:58 10° NNW 21:31:34 23° NE 21:34:56 15° E visible
18 Apr 7.7 23:12:41 10° NW 23:18:25 78° WSW 23:18:25 78° WSW visible
19 Apr 8.9 21:35:47 10° NNW 21:40:55 31° NE 21:43:53 20° E visible
19 Apr 8.1 23:21:51 10° NW 23:27:23 53° WSW 23:27:23 53° WSW visible
20 Apr 8.4 21:44:40 10° NNW 21:50:11 42° NE 21:52:53 26° ESE visible
20 Apr 8.7 23:31:10 10° NW 23:36:23 36° WSW 23:36:23 36° WSW visible
21 Apr 8.0 21:53:36 10° NNW 21:59:22 58° NE 22:01:54 33° ESE visible
21 Apr 9.3 23:40:40 10° NW 23:45:15 24° WSW 23:45:25 24° WSW visible
